Regional Weather Roundup
Issued by NWS Goodland, KS

Home | Current Version | Previous Version | Text Only | Print | Product List | Glossary On
Versions: 1 2 3 4 5 6 7 8 9 10 11 12 13 14 15 16 17 18 19 20 21 22 23 24 25 26 27 28 29 30 31 32 33 34 35 36 37 38 39 40 41 42 43 44 45 46 47 48 49 50
000
ASUS43 KGLD 101308
RWRGLD

GOODLAND FORECAST AREA HOURLY WEATHER ROUNDUP
NATIONAL WEATHER SERVICE GOODLAND KS
600 AM MST SAT DEC 10 2016

...OFFICIAL OBSERVATIONS...

CITY           SKY/WX    TMP DP  RH WIND       PRES   REMARKS
GOODLAND KS    CLOUDY    16  14  92 S3        30.03F
HILL CITY KS   CLOUDY    18  13  80 CALM      30.21R
IMPERIAL NEB   CLOUDY    17  14  88 SE12      30.05F WCI   4
MCCOOK NEB     CLOUDY    17  13  84 E5        30.16R
AKRON CO       CLOUDY    15  12  88 SW5       29.96F
BURLINGTON CO  CLOUDY    21  16  81 CALM      30.01S
LIMON CO       CLOUDY    13  10  88 CALM      29.97F
$$

...UNOFFICIAL OBSERVATIONS...

CITY           SKY/WX    TMP DP  RH WIND       PRES   REMARKS
COLBY KS       CLEAR     12  12 100 SE7       30.09F
LENORA KS        N/A     17  32 100 MISG        N/A
NORTON KS      CLEAR     16  10  79 E6        30.17F
SHARON SPRINGS   N/A     18  16  90 S9          N/A
TRENTON NEB      N/A     15  32 100 SE5         N/A
KIT CARSON CO    N/A     16  13  88 CALM        N/A
YUMA CO        MOCLDY     9   7  92 CALM      29.99F
$$



USA.gov is the U.S. government's official web portal to all federal, state and local government web resources and services.